Location: Bucharest
(44.4268°N, 26.1025°E)
Time: 22:58:22
(UTC+03:00)

SPROUT - Pass Details

Date: 02 July 2022
Orbit: 588 x 599 km, 97.9° (Epoch: 11 August)

Event Time Altitude Azimuth Distance (km) Brightness Sun altitude
Exits shadow 01:53:07 58° 126° (SE) 691 ? -22.1°
Maximum altitude 01:53:45 69° 75° (ENE) 633 ? -22.1°
Drops below altitude 10° 01:57:54 10° 352° (N) 1,926 ? -22.0°
Sets 02:00:05 0° 350° (N) 2,832 ? -21.9°
